Location: Pensacola
(30.4142°N, 87.2155°W)
Time: 02:54:11
(UTC-05:00)

Hubble Space Telescope - Pass Details

Date: 02 February 2023
Orbit: 526 x 530 km, 28.5° (Epoch: 01 April)

Event Time Altitude Azimuth Distance (km) Brightness Sun altitude
Exits shadow 05:27:05 19° 233° (SW) 1,277 2.3 -15.9°
Maximum altitude 05:28:36 24° 201° (SSW) 1,113 2.3 -15.6°
Drops below altitude 10° 05:31:57 10° 146° (SE) 1,766 4.1 -14.8°
Sets 05:34:30 0° 132° (SE) 2,655 5.4 -14.3°
